STARLINK-2321 (47867 NORAD) Tracking and Keplerian Element Data

This shows tracking and keplerian element data for the satellite.

Feedback or suggestion? Click here.




ElementValue
Catalog47867
NameSTARLINK-2321
Epoch Orbit178
Epoch Day170.58334491
Epoch Year2021
RAAN95.1362
Inclination53.0489
Eccentricity0.0002446
Argument of Perigee14.2443
Mean Anonmoly29.4255
Mean Motion15.73183536
Decay Rate0.00048063
L11 47867U 21021H 21170.58334491 .00048063 00000-0 34507-3 0 9999
L22 47867 53.0489 95.1362 0002446 14.2443 29.4255 15.73183536 1788

Live tracking and technical data element details for STARLINK-2321 (NORAD 47867). STARLINK-2321 can be tracked NOW for your location showing map with azimuth and elevation plus other details from your city location.

Track the satellite on the map from your city or location and see movement details for azimuth, elevation, latitude, longitude, range, height, and movement on the map or in text.







IsCatalogInMostPopularTable: catalog: 47867, numindb: 41
Update: records affected: 1



GetName: 47867 STARLINK-2321

Hit Count: updated at: Mon, 21 Jun 2021 04:44:12 GMT